Home   Weather   Vieques   Past weeks
Flag for Puerto Rico

Past Weather in Vieques, Puerto Rico — Yesterday and Last 2 Weeks

Now
84 °F

Scattered clouds.


Feels Like: 88 °F
Forecast: 83 / 76 °F
Wind: 15 mph from Northeast

Location: Luis Munoz Marin

Current Time: Dec 11, 2019 at 10:51:24 am

Latest Report: Dec 11, 2019 at 9:56 am


Visibility: 10 mi

Pressure: 30.08 "Hg

Humidity: 63%

Dew Point: 70 °F

Location of ViequesLocation

Past Weather in Vieques — Graph

°F

Vieques Temperature Yesterday

Maximum temperature yesterday: 85 °F (at 12:56 pm)
Minimum temperature yesterday: 76 °F (at 2:56 am)
Average temperature yesterday: 80 °F

High & Low Weather Summary for the Past Weeks

 TemperatureHumidityPressure
High92 °F (Dec 3, 1:56 pm)97% (Nov 29, 11:56 pm)30.09 "Hg (Nov 29, 11:56 pm)
Low74 °F (Nov 29, 11:56 pm)52% (Dec 5, 1:56 pm)29.83 "Hg (Nov 29, 2:56 pm)
Average82 °F78%29.97 "Hg
* Reported Nov 26 8:56 am — Dec 11 8:56 am, Vieques. Weather by CustomWeather, © 2019

Note: Actual official high and low records may vary slightly from our data, if they occured in-between our weather recording intervals... More about our weather records

Vieques Weather History for the Previous 24 Hours

Scroll right to see more
 ConditionsComfort  
Time TempWeatherWind HumidityBarometerVisibility
8:56 am
Wed, Dec 11
83 °FScattered clouds.13 mph65%30.08 "Hg10 mi
7:56 am79 °FScattered clouds.5 mph82%30.06 "Hg10 mi
6:56 am78 °FPassing clouds.5 mph84%30.03 "Hg10 mi
5:56 am77 °FPassing clouds.6 mph85%30.02 "Hg10 mi
4:56 am77 °FPassing clouds.3 mph85%30.01 "Hg10 mi
3:56 am78 °FPassing clouds.9 mph82%30.00 "Hg10 mi
2:56 am77 °FPassing clouds.No wind88%30.00 "Hg10 mi
1:56 am77 °FPassing clouds.No wind88%30.02 "Hg10 mi
12:56 am78 °FPassing clouds.6 mph84%30.04 "Hg10 mi
11:56 pm
Tue, Dec 10
78 °FPassing clouds.5 mph87%30.05 "Hg10 mi
10:56 pm79 °FPassing clouds.5 mph84%30.06 "Hg10 mi
9:56 pm79 °FPassing clouds.6 mph84%30.06 "Hg10 mi
8:56 pm79 °FPassing clouds.6 mph84%30.06 "Hg10 mi
7:56 pm78 °FLight rain. Partly cloudy.14 mph87%30.04 "Hg9 mi
6:56 pm77 °FPassing clouds.3 mph85%30.03 "Hg10 mi
5:56 pm79 °FLight rain. Broken clouds.7 mph84%30.01 "Hg9 mi
4:56 pm82 °FRain. Scattered clouds.23 mph79%30.01 "Hg8 mi
3:56 pm80 °FScattered clouds.12 mph81%30.00 "Hg10 mi
2:56 pm84 °FScattered clouds.17 mph67%30.00 "Hg10 mi
1:56 pm85 °FScattered clouds.17 mph65%30.01 "Hg10 mi
12:56 pm85 °FLight rain. Scattered clouds.14 mph72%30.03 "Hg10 mi
11:56 am84 °FLight rain. Scattered clouds.17 mph72%30.07 "Hg10 mi
10:56 am84 °FScattered clouds.20 mph70%30.08 "Hg10 mi
Weather by CustomWeather, © 2019

See weather overview

Advertising